Location: Azul
(36.7830°S, 59.8500°W)
Time: 17:15:59
(UTC-03:00)

BEESAT - Pass Details

Date: 31 October 2021
Orbit: 700 x 707 km, 98.6° (Epoch: 06 December)

Event Time Altitude Azimuth Distance (km) Brightness Sun altitude
Rises 20:39:37 0° 346° (NNW) 3,090 ? -13.2°
Reaches altitude 10° 20:42:11 10° 333° (NNW) 2,182 ? -13.7°
Maximum altitude 20:46:11 26° 276° (W) 1,380 ? -14.4°
Drops below altitude 10° 20:50:14 10° 219° (SW) 2,208 ? -15.0°
Sets 20:52:52 0° 206° (SSW) 3,136 ? -15.5°
